Location: Newark
(55.1225°N, 33.2808°E)
Time: 10:33:47
(UTC+00:00)

ISS - Pass Details

Date: 25 September 2019
Orbit: 411 x 421 km, 51.6° (Epoch: 14 October)

Event Time Altitude Azimuth Distance (km) Brightness Sun altitude
Rises 17:01:22 0° 241° (WSW) 2,340 0.8 -12.4°
Reaches altitude 10° 17:03:32 10° 232° (SW) 1,480 -0.5 -12.7°
Maximum altitude 17:06:36 35° 165° (SSE) 680 -3.0 -13.2°
Enters shadow 17:07:52 25° 120° (ESE) 868 -2.8 -13.3°
